Time,TemperatureF,DewpointF,PressureIn,WindDirection,WindDirectionDegrees,WindSpeedMPH,WindSpeedGustMPH,Humidity,HourlyPrecipIn,Conditions,Clouds,dailyrainin,SoftwareType,DateUTC
2013-04-19 00:02:00,47.1,46.3,29.97,SE,130,10.0,16.0,97,0.00,,---,0.00,VWS V14.01,2013-04-19 04:02:00,
2013-04-19 00:03:00,47.1,46.3,29.97,SSE,149,11.0,18.0,97,0.00,,---,0.00,VWS V14.01,2013-04-19 04:03:00,
2013-04-19 00:05:00,47.0,46.2,29.96,SE,145,8.0,18.0,97,0.00,,---,0.00,VWS V14.01,2013-04-19 04:05:00,
2013-04-19 00:09:00,46.9,46.1,29.97,SE,129,8.0,18.0,97,0.00,,---,0.00,VWS V14.01,2013-04-19 04:09:00,
2013-04-19 00:10:00,46.9,46.1,29.97,SE,139,10.0,16.0,97,0.00,,---,0.00,VWS V14.01,2013-04-19 04:10:00,
2013-04-19 00:15:00,46.9,46.1,29.97,SSE,165,4.0,15.0,97,0.00,,---,0.00,VWS V14.01,2013-04-19 04:15:00,
2013-04-19 00:20:00,46.9,46.1,29.97,ESE,122,6.0,16.0,97,0.00,,---,0.00,VWS V14.01,2013-04-19 04:20:00,
2013-04-19 00:25:00,47.1,46.3,29.98,ESE,115,4.0,13.0,97,0.00,,---,0.00,VWS V14.01,2013-04-19 04:25:00,
2013-04-19 00:30:00,47.1,46.3,29.98,ESE,122,6.0,10.0,97,0.00,,---,0.00,VWS V14.01,2013-04-19 04:30:00,
2013-04-19 00:35:00,47.3,46.5,29.98,ESE,120,4.0,9.0,97,0.00,,---,0.00,VWS V14.01,2013-04-19 04:35:00,
2013-04-19 00:40:00,47.4,46.6,29.99,ESE,105,5.0,9.0,97,0.00,,---,0.00,VWS V14.01,2013-04-19 04:40:00,
2013-04-19 00:45:00,47.5,46.7,29.99,SE,132,3.0,8.0,97,0.00,,---,0.00,VWS V14.01,2013-04-19 04:45:00,
2013-04-19 00:50:00,47.7,47.2,29.99,SE,132,5.0,8.0,98,0.00,,---,0.00,VWS V14.01,2013-04-19 04:50:00,
2013-04-19 00:55:00,47.8,47.3,29.98,ESE,104,7.0,10.0,98,0.00,,---,0.00,VWS V14.01,2013-04-19 04:55:00,
2013-04-19 01:00:00,47.9,47.4,29.98,SE,135,7.0,13.0,98,0.00,,---,0.00,VWS V14.01,2013-04-19 05:00:00,
2013-04-19 01:05:00,48.0,47.5,29.98,SSE,160,6.0,13.0,98,0.00,,---,0.00,VWS V14.01,2013-04-19 05:05:00,
2013-04-19 01:10:00,48.1,47.6,29.98,ESE,117,6.0,10.0,98,0.00,,---,0.00,VWS V14.01,2013-04-19 05:10:00,
2013-04-19 01:15:00,48.3,47.8,29.98,South,173,8.0,11.0,98,0.00,,---,0.00,VWS V14.01,2013-04-19 05:15:00,
2013-04-19 01:20:00,48.6,48.1,29.98,SSE,149,6.0,10.0,98,0.00,,---,0.00,VWS V14.01,2013-04-19 05:20:00,
2013-04-19 01:26:00,48.9,48.4,29.98,SSE,152,6.0,11.0,98,0.00,,---,0.00,VWS V14.01,2013-04-19 05:26:00,
2013-04-19 01:32:00,49.0,48.5,29.98,SE,131,6.0,9.0,98,0.00,,---,0.00,VWS V14.01,2013-04-19 05:32:00,
2013-04-19 01:37:00,49.3,48.8,29.97,ESE,120,3.0,11.0,98,0.00,,---,0.00,VWS V14.01,2013-04-19 05:37:00,
2013-04-19 01:43:00,49.5,49.0,29.97,East,92,7.0,13.0,98,0.00,,---,0.00,VWS V14.01,2013-04-19 05:43:00,
2013-04-19 01:48:00,49.1,48.6,29.96,ESE,108,8.0,12.0,98,0.00,,---,0.00,VWS V14.01,2013-04-19 05:48:00,
2013-04-19 01:53:00,49.0,48.5,29.96,East,93,9.0,12.0,98,0.00,,---,0.00,VWS V14.01,2013-04-19 05:53:00,
2013-04-19 01:58:00,49.0,48.5,29.96,East,88,5.0,12.0,98,0.00,,---,0.00,VWS V14.01,2013-04-19 05:58:00,
2013-04-19 02:03:00,49.0,48.5,29.96,ESE,121,5.0,12.0,98,0.00,,---,0.00,VWS V14.01,2013-04-19 06:03:00,
2013-04-19 02:08:00,48.9,48.4,29.96,East,98,4.0,8.0,98,0.00,,---,0.00,VWS V14.01,2013-04-19 06:08:00,
2013-04-19 02:13:00,48.8,48.3,29.96,East,96,4.0,10.0,98,0.00,,---,0.00,VWS V14.01,2013-04-19 06:13:00,
2013-04-19 02:18:00,48.5,48.0,29.96,SE,132,5.0,11.0,98,0.00,,---,0.00,VWS V14.01,2013-04-19 06:18:00,
2013-04-19 02:23:00,48.4,47.9,29.95,SE,129,6.0,8.0,98,0.00,,---,0.00,VWS V14.01,2013-04-19 06:23:00,
2013-04-19 02:28:00,48.3,47.8,29.95,SE,142,4.0,9.0,98,0.00,,---,0.00,VWS V14.01,2013-04-19 06:28:00,
2013-04-19 02:33:00,48.4,47.9,29.94,ESE,117,8.0,9.0,98,0.00,,---,0.00,VWS V14.01,2013-04-19 06:33:00,
2013-04-19 02:38:00,48.4,47.9,29.93,ESE,120,7.0,10.0,98,0.00,,---,0.00,VWS V14.01,2013-04-19 06:38:00,
2013-04-19 02:43:00,48.5,48.0,29.93,ESE,103,7.0,13.0,98,0.00,,---,0.00,VWS V14.01,2013-04-19 06:43:00,
2013-04-19 02:48:00,48.5,48.0,29.92,ESE,118,6.0,11.0,98,0.00,,---,0.00,VWS V14.01,2013-04-19 06:48:00,
2013-04-19 02:53:00,48.4,47.9,29.92,SSE,155,7.0,10.0,98,0.00,,---,0.00,VWS V14.01,2013-04-19 06:53:00,
2013-04-19 02:58:00,48.3,47.8,29.92,SSE,158,6.0,13.0,98,0.00,,---,0.00,VWS V14.01,2013-04-19 06:58:00,
2013-04-19 03:03:00,48.3,47.8,29.92,SSE,163,11.0,11.0,98,0.00,,---,0.00,VWS V14.01,2013-04-19 07:03:00,
2013-04-19 03:08:00,48.2,47.7,29.91,SSE,150,7.0,10.0,98,0.00,,---,0.00,VWS V14.01,2013-04-19 07:08:00,
2013-04-19 03:13:00,48.3,47.8,29.90,SE,139,9.0,10.0,98,0.00,,---,0.00,VWS V14.01,2013-04-19 07:13:00,
2013-04-19 03:18:00,48.3,47.8,29.90,ESE,123,7.0,11.0,98,0.00,,---,0.00,VWS V14.01,2013-04-19 07:18:00,
2013-04-19 03:23:00,48.6,48.1,29.89,SE,139,6.0,15.0,98,0.00,,---,0.00,VWS V14.01,2013-04-19 07:23:00,
2013-04-19 03:28:00,48.8,48.3,29.89,SSE,160,7.0,14.0,98,0.00,,---,0.00,VWS V14.01,2013-04-19 07:28:00,
2013-04-19 03:33:00,48.9,48.4,29.89,ESE,122,5.0,9.0,98,0.00,,---,0.00,VWS V14.01,2013-04-19 07:33:00,
2013-04-19 03:39:00,49.3,48.8,29.89,SSE,149,5.0,10.0,98,0.00,,---,0.00,VWS V14.01,2013-04-19 07:39:00,
2013-04-19 03:44:00,49.3,48.8,29.89,ESE,121,6.0,10.0,98,0.00,,---,0.00,VWS V14.01,2013-04-19 07:44:00,
2013-04-19 03:49:00,49.3,48.8,29.89,SSE,156,5.0,10.0,98,0.00,,---,0.00,VWS V14.01,2013-04-19 07:49:00,
2013-04-19 03:54:00,49.5,49.0,29.89,ESE,118,5.0,10.0,98,0.00,,---,0.00,VWS V14.01,2013-04-19 07:54:00,
2013-04-19 04:00:00,49.4,48.9,29.90,SE,138,4.0,11.0,98,0.00,,---,0.00,VWS V14.01,2013-04-19 08:00:00,
2013-04-19 04:05:00,49.5,49.0,29.90,SE,136,2.0,8.0,98,0.00,,---,0.00,VWS V14.01,2013-04-19 08:05:00,
2013-04-19 04:10:00,49.6,49.1,29.91,SE,126,3.0,7.0,98,0.00,,---,0.00,VWS V14.01,2013-04-19 08:10:00,
2013-04-19 04:15:00,49.6,49.1,29.91,ESE,110,3.0,4.0,98,0.00,,---,0.00,VWS V14.01,2013-04-19 08:15:00,
2013-04-19 04:20:00,49.9,49.4,29.91,ESE,120,4.0,10.0,98,0.00,,---,0.00,VWS V14.01,2013-04-19 08:20:00,
2013-04-19 04:25:00,49.8,49.3,29.92,SSE,150,4.0,6.0,98,0.00,,---,0.00,VWS V14.01,2013-04-19 08:25:00,
2013-04-19 04:30:00,49.7,49.2,29.92,SE,145,1.0,6.0,98,0.00,,---,0.00,VWS V14.01,2013-04-19 08:30:00,
2013-04-19 04:35:00,49.7,49.2,29.92,SE,146,2.0,5.0,98,0.00,,---,0.00,VWS V14.01,2013-04-19 08:35:00,
2013-04-19 04:40:00,49.8,49.3,29.92,SE,145,5.0,8.0,98,0.00,,---,0.00,VWS V14.01,2013-04-19 08:40:00,
2013-04-19 04:45:00,49.8,49.3,29.91,SE,136,3.0,8.0,98,0.00,,---,0.00,VWS V14.01,2013-04-19 08:45:00,
2013-04-19 04:50:00,49.8,49.3,29.92,ESE,118,6.0,7.0,98,0.00,,---,0.00,VWS V14.01,2013-04-19 08:50:00,
2013-04-19 04:55:00,49.9,49.4,29.91,East,101,6.0,9.0,98,0.00,,---,0.00,VWS V14.01,2013-04-19 08:55:00,
2013-04-19 05:00:00,50.0,49.5,29.91,SE,132,6.0,9.0,98,0.00,,---,0.00,VWS V14.01,2013-04-19 09:00:00,
2013-04-19 05:05:00,50.0,49.5,29.91,ESE,112,2.0,9.0,98,0.00,,---,0.00,VWS V14.01,2013-04-19 09:05:00,
2013-04-19 05:10:00,50.1,49.6,29.90,ESE,117,6.0,8.0,98,0.00,,---,0.00,VWS V14.01,2013-04-19 09:10:00,
2013-04-19 05:15:00,50.2,49.7,29.90,SE,127,6.0,11.0,98,0.00,,---,0.00,VWS V14.01,2013-04-19 09:15:00,
2013-04-19 05:20:00,50.3,49.8,29.90,SE,139,5.0,9.0,98,0.00,,---,0.00,VWS V14.01,2013-04-19 09:20:00,
2013-04-19 05:25:00,50.3,49.8,29.90,ESE,113,6.0,10.0,98,0.00,,---,0.00,VWS V14.01,2013-04-19 09:25:00,
2013-04-19 05:30:00,50.3,49.8,29.89,ESE,116,10.0,10.0,98,0.00,,---,0.00,VWS V14.01,2013-04-19 09:30:00,
2013-04-19 05:35:00,50.4,49.9,29.89,ESE,108,4.0,11.0,98,0.00,,---,0.00,VWS V14.01,2013-04-19 09:35:00,
2013-04-19 05:40:00,50.4,49.9,29.89,SE,144,9.0,12.0,98,0.00,,---,0.00,VWS V14.01,2013-04-19 09:40:00,
2013-04-19 05:45:00,50.5,50.0,29.89,SSE,153,9.0,12.0,98,0.00,,---,0.00,VWS V14.01,2013-04-19 09:45:00,
2013-04-19 05:50:00,50.5,50.0,29.88,SE,126,9.0,13.0,98,0.00,,---,0.00,VWS V14.01,2013-04-19 09:50:00,
2013-04-19 05:55:00,50.6,50.1,29.89,SE,144,5.0,12.0,98,0.00,,---,0.00,VWS V14.01,2013-04-19 09:55:00,
2013-04-19 06:00:00,50.6,50.1,29.89,SE,129,13.0,13.0,98,0.00,,---,0.00,VWS V14.01,2013-04-19 10:00:00,
2013-04-19 06:05:00,50.6,50.1,29.88,SE,132,7.0,13.0,98,0.00,,---,0.00,VWS V14.01,2013-04-19 10:05:00,
2013-04-19 06:10:00,50.7,50.2,29.89,ESE,109,5.0,12.0,98,0.00,,---,0.00,VWS V14.01,2013-04-19 10:10:00,
2013-04-19 06:16:00,50.7,50.2,29.89,SE,142,6.0,12.0,98,0.00,,---,0.00,VWS V14.01,2013-04-19 10:16:00,
2013-04-19 06:21:00,50.8,50.3,29.89,SE,136,6.0,11.0,98,0.00,,---,0.00,VWS V14.01,2013-04-19 10:21:00,
2013-04-19 06:26:00,50.8,50.3,29.88,SE,143,7.0,11.0,98,0.00,,---,0.00,VWS V14.01,2013-04-19 10:26:00,
2013-04-19 06:31:00,50.8,50.3,29.88,ESE,112,3.0,11.0,98,0.00,,---,0.00,VWS V14.01,2013-04-19 10:31:00,
2013-04-19 06:36:00,50.9,50.4,29.88,SSE,155,9.0,10.0,98,0.00,,---,0.00,VWS V14.01,2013-04-19 10:36:00,
2013-04-19 06:41:00,51.0,50.5,29.88,SSE,148,9.0,11.0,98,0.00,,---,0.00,VWS V14.01,2013-04-19 10:41:00,
2013-04-19 06:46:00,51.1,50.6,29.88,SE,145,7.0,11.0,98,0.00,,---,0.00,VWS V14.01,2013-04-19 10:46:00,
2013-04-19 06:51:00,51.2,50.9,29.88,SE,146,5.0,8.0,99,0.00,,---,0.00,VWS V14.01,2013-04-19 10:51:00,
2013-04-19 06:56:00,51.3,51.0,29.88,SE,141,6.0,13.0,99,0.00,,---,0.00,VWS V14.01,2013-04-19 10:56:00,
2013-04-19 07:02:00,51.5,51.2,29.89,SE,129,12.0,13.0,99,0.00,,---,0.00,VWS V14.01,2013-04-19 11:02:00,
2013-04-19 07:07:00,51.6,51.3,29.90,SSE,153,12.0,14.0,99,0.00,,---,0.00,VWS V14.01,2013-04-19 11:07:00,
2013-04-19 07:12:00,51.8,51.5,29.90,SE,143,9.0,14.0,99,0.00,,---,0.00,VWS V14.01,2013-04-19 11:12:00,
2013-04-19 07:17:00,51.8,51.5,29.89,SSE,162,9.0,12.0,99,0.00,,---,0.00,VWS V14.01,2013-04-19 11:17:00,
2013-04-19 07:22:00,51.8,51.5,29.89,SSE,162,8.0,12.0,99,0.00,,---,0.00,VWS V14.01,2013-04-19 11:22:00,
2013-04-19 07:27:00,51.9,51.6,29.90,SSE,152,6.0,9.0,99,0.00,,---,0.00,VWS V14.01,2013-04-19 11:27:00,
2013-04-19 07:32:00,52.0,51.7,29.89,SSE,162,5.0,13.0,99,0.00,,---,0.00,VWS V14.01,2013-04-19 11:32:00,
2013-04-19 07:37:00,52.1,51.8,29.89,ESE,121,7.0,10.0,99,0.00,,---,0.00,VWS V14.01,2013-04-19 11:37:00,
2013-04-19 07:42:00,52.2,51.9,29.88,SSE,156,11.0,14.0,99,0.00,,---,0.00,VWS V14.01,2013-04-19 11:42:00,
2013-04-19 07:47:00,52.3,52.0,29.88,SSE,153,4.0,10.0,99,0.00,,---,0.00,VWS V14.01,2013-04-19 11:47:00,
2013-04-19 07:52:00,52.5,52.2,29.88,ESE,120,10.0,11.0,99,0.00,,---,0.00,VWS V14.01,2013-04-19 11:52:00,
2013-04-19 07:57:00,52.5,52.2,29.87,East,98,11.0,11.0,99,0.00,,---,0.00,VWS V14.01,2013-04-19 11:57:00,
2013-04-19 08:02:00,52.6,52.3,29.87,SE,142,8.0,11.0,99,0.00,,---,0.00,VWS V14.01,2013-04-19 12:02:00,
2013-04-19 08:07:00,52.7,52.4,29.87,ESE,120,10.0,13.0,99,0.00,,---,0.00,VWS V14.01,2013-04-19 12:07:00,
2013-04-19 08:13:00,52.7,52.4,29.87,SSE,160,4.0,14.0,99,0.00,,---,0.00,VWS V14.01,2013-04-19 12:13:00,
2013-04-19 08:18:00,52.7,52.4,29.87,SE,125,11.0,12.0,99,0.00,,---,0.00,VWS V14.01,2013-04-19 12:18:00,
2013-04-19 08:23:00,52.8,52.5,29.87,ESE,105,4.0,13.0,99,0.00,,---,0.00,VWS V14.01,2013-04-19 12:23:00,
2013-04-19 08:29:00,52.9,52.6,29.87,SE,134,8.0,13.0,99,0.00,,---,0.00,VWS V14.01,2013-04-19 12:29:00,
2013-04-19 08:34:00,53.1,52.8,29.86,SE,132,7.0,12.0,99,0.00,,---,0.00,VWS V14.01,2013-04-19 12:34:00,
2013-04-19 08:39:00,53.4,53.1,29.86,SE,132,8.0,11.0,99,0.00,,---,0.00,VWS V14.01,2013-04-19 12:39:00,
2013-04-19 08:44:00,53.5,53.2,29.86,ESE,113,5.0,14.0,99,0.00,,---,0.00,VWS V14.01,2013-04-19 12:44:00,
2013-04-19 08:49:00,53.7,53.4,29.86,ESE,115,10.0,14.0,99,0.00,,---,0.00,VWS V14.01,2013-04-19 12:49:00,
2013-04-19 08:54:00,53.6,53.3,29.86,SSE,153,10.0,14.0,99,0.00,,---,0.00,VWS V14.01,2013-04-19 12:54:00,
2013-04-19 08:59:00,53.7,53.4,29.86,SE,132,5.0,11.0,99,0.00,,---,0.00,VWS V14.01,2013-04-19 12:59:00,
2013-04-19 09:05:00,53.8,53.5,29.86,SSE,168,10.0,13.0,99,0.00,,---,0.00,VWS V14.01,2013-04-19 13:05:00,
2013-04-19 09:10:00,54.0,53.7,29.85,SE,141,7.0,15.0,99,0.00,,---,0.00,VWS V14.01,2013-04-19 13:10:00,
2013-04-19 09:16:00,53.9,53.6,29.85,SSE,152,13.0,16.0,99,0.00,,---,0.00,VWS V14.01,2013-04-19 13:16:00,
2013-04-19 09:21:00,54.1,53.8,29.85,SE,141,8.0,14.0,99,0.00,,---,0.00,VWS V14.01,2013-04-19 13:21:00,
2013-04-19 09:26:00,54.3,54.0,29.85,SE,139,9.0,15.0,99,0.00,,---,0.00,VWS V14.01,2013-04-19 13:26:00,
2013-04-19 09:32:00,54.3,54.0,29.85,SE,134,13.0,14.0,99,0.00,,---,0.00,VWS V14.01,2013-04-19 13:32:00,
2013-04-19 09:37:00,54.6,54.3,29.84,SSE,153,12.0,15.0,99,0.00,,---,0.00,VWS V14.01,2013-04-19 13:37:00,
2013-04-19 09:42:00,54.7,54.4,29.85,SSE,150,8.0,16.0,99,0.00,,---,0.00,VWS V14.01,2013-04-19 13:42:00,
2013-04-19 09:47:00,54.8,54.5,29.84,SE,134,11.0,17.0,99,0.00,,---,0.00,VWS V14.01,2013-04-19 13:47:00,
2013-04-19 09:52:00,55.1,54.8,29.83,SSE,149,7.0,17.0,99,0.00,,---,0.00,VWS V14.01,2013-04-19 13:52:00,
2013-04-19 09:57:00,55.3,55.0,29.83,SE,140,9.0,15.0,99,0.00,,---,0.00,VWS V14.01,2013-04-19 13:57:00,
2013-04-19 10:02:00,55.5,55.2,29.83,SSW,201,13.0,15.0,99,0.00,,---,0.00,VWS V14.01,2013-04-19 14:02:00,
2013-04-19 10:07:00,55.6,55.3,29.83,SE,139,8.0,14.0,99,0.00,,---,0.00,VWS V14.01,2013-04-19 14:07:00,
2013-04-19 10:12:00,55.5,55.2,29.83,SSE,163,10.0,15.0,99,0.00,,---,0.00,VWS V14.01,2013-04-19 14:12:00,
2013-04-19 10:17:00,55.4,55.1,29.83,SSE,150,9.0,16.0,99,0.00,,---,0.00,VWS V14.01,2013-04-19 14:17:00,
2013-04-19 10:22:00,55.3,55.0,29.83,SE,139,9.0,14.0,99,0.00,,---,0.00,VWS V14.01,2013-04-19 14:22:00,
2013-04-19 10:27:00,55.3,55.0,29.82,SSE,155,8.0,14.0,99,0.00,,---,0.00,VWS V14.01,2013-04-19 14:27:00,
2013-04-19 10:32:00,55.4,55.1,29.82,SE,146,6.0,13.0,99,0.00,,---,0.00,VWS V14.01,2013-04-19 14:32:00,
2013-04-19 10:37:00,55.6,55.3,29.82,SSE,154,11.0,14.0,99,0.00,,---,0.00,VWS V14.01,2013-04-19 14:37:00,
2013-04-19 10:42:00,55.8,55.5,29.82,South,191,10.0,14.0,99,0.00,,---,0.00,VWS V14.01,2013-04-19 14:42:00,
2013-04-19 10:47:00,55.9,55.6,29.82,SSE,167,6.0,17.0,99,0.00,,---,0.00,VWS V14.01,2013-04-19 14:47:00,
2013-04-19 10:52:00,56.1,55.8,29.82,SE,128,7.0,15.0,99,0.00,,---,0.00,VWS V14.01,2013-04-19 14:52:00,
2013-04-19 10:57:00,56.3,56.0,29.81,SE,131,16.0,16.0,99,0.00,,---,0.00,VWS V14.01,2013-04-19 14:57:00,
2013-04-19 11:02:00,56.5,56.2,29.81,SSE,163,9.0,17.0,99,0.00,,---,0.00,VWS V14.01,2013-04-19 15:02:00,
2013-04-19 11:07:00,56.7,56.1,29.81,South,186,9.0,16.0,98,0.00,,---,0.00,VWS V14.01,2013-04-19 15:07:00,
2013-04-19 11:12:00,57.1,56.8,29.80,East,99,7.0,14.0,99,0.00,,---,0.00,VWS V14.01,2013-04-19 15:12:00,
2013-04-19 11:17:00,57.2,56.6,29.80,SE,138,7.0,14.0,98,0.00,,---,0.00,VWS V14.01,2013-04-19 15:17:00,
2013-04-19 11:22:00,57.2,56.6,29.80,East,87,10.0,12.0,98,0.00,,---,0.00,VWS V14.01,2013-04-19 15:22:00,
2013-04-19 11:27:00,57.2,56.6,29.80,South,174,8.0,13.0,98,0.00,,---,0.00,VWS V14.01,2013-04-19 15:27:00,
2013-04-19 11:32:00,57.3,56.7,29.80,SE,141,6.0,13.0,98,0.00,,---,0.00,VWS V14.01,2013-04-19 15:32:00,
2013-04-19 11:37:00,57.5,56.9,29.79,ESE,120,6.0,11.0,98,0.00,,---,0.00,VWS V14.01,2013-04-19 15:37:00,
2013-04-19 11:42:00,57.6,57.0,29.79,SSE,153,11.0,15.0,98,0.00,,---,0.00,VWS V14.01,2013-04-19 15:42:00,
2013-04-19 11:47:00,57.8,57.2,29.79,SSE,153,9.0,14.0,98,0.00,,---,0.00,VWS V14.01,2013-04-19 15:47:00,
2013-04-19 11:52:00,57.9,57.1,29.78,SSE,160,9.0,16.0,97,0.00,,---,0.00,VWS V14.01,2013-04-19 15:52:00,
2013-04-19 11:57:00,58.1,57.0,29.79,South,172,6.0,14.0,96,0.00,,---,0.00,VWS V14.01,2013-04-19 15:57:00,
2013-04-19 12:02:00,58.3,57.2,29.78,SSE,160,7.0,14.0,96,0.00,,---,0.00,VWS V14.01,2013-04-19 16:02:00,
2013-04-19 12:07:00,58.3,56.9,29.78,South,174,11.0,15.0,95,0.00,,---,0.00,VWS V14.01,2013-04-19 16:07:00,
2013-04-19 12:12:00,58.2,56.8,29.77,SSE,162,8.0,13.0,95,0.00,,---,0.00,VWS V14.01,2013-04-19 16:12:00,
2013-04-19 12:17:00,58.3,56.9,29.76,SE,135,6.0,17.0,95,0.00,,---,0.00,VWS V14.01,2013-04-19 16:17:00,
2013-04-19 12:22:00,58.4,56.7,29.76,SE,126,13.0,14.0,94,0.00,,---,0.00,VWS V14.01,2013-04-19 16:22:00,
2013-04-19 12:27:00,58.3,56.6,29.77,SE,138,8.0,17.0,94,0.00,,---,0.00,VWS V14.01,2013-04-19 16:27:00,
2013-04-19 12:32:00,58.2,56.5,29.77,SSE,153,18.0,20.0,94,0.00,,---,0.00,VWS V14.01,2013-04-19 16:32:00,
2013-04-19 12:37:00,58.0,56.6,29.76,SSE,162,11.0,16.0,95,0.00,,---,0.00,VWS V14.01,2013-04-19 16:37:00,
2013-04-19 12:42:00,58.0,56.6,29.76,SSE,149,11.0,17.0,95,0.00,,---,0.00,VWS V14.01,2013-04-19 16:42:00,
2013-04-19 12:47:00,58.0,56.9,29.75,SSE,150,12.0,19.0,96,0.00,,---,0.00,VWS V14.01,2013-04-19 16:47:00,
2013-04-19 12:53:00,58.1,57.0,29.75,SSE,154,12.0,21.0,96,0.00,,---,0.00,VWS V14.01,2013-04-19 16:53:00,
2013-04-19 12:58:00,58.4,57.3,29.75,SSE,165,9.0,21.0,96,0.00,,---,0.00,VWS V14.01,2013-04-19 16:58:00,
2013-04-19 13:03:00,58.8,57.4,29.74,SSE,165,12.0,19.0,95,0.00,,---,0.00,VWS V14.01,2013-04-19 17:03:00,
2013-04-19 13:08:00,59.4,57.7,29.73,SSE,149,15.0,23.0,94,0.00,,---,0.00,VWS V14.01,2013-04-19 17:08:00,
2013-04-19 13:13:00,59.7,58.0,29.73,SSE,149,11.0,23.0,94,0.00,,---,0.00,VWS V14.01,2013-04-19 17:13:00,
2013-04-19 13:18:00,60.1,58.1,29.73,SSE,155,7.0,20.0,93,0.00,,---,0.00,VWS V14.01,2013-04-19 17:18:00,
2013-04-19 13:23:00,60.8,58.5,29.72,SSE,152,11.0,18.0,92,0.00,,---,0.00,VWS V14.01,2013-04-19 17:23:00,
2013-04-19 13:28:00,61.0,58.0,29.72,South,180,10.0,21.0,90,0.00,,---,0.00,VWS V14.01,2013-04-19 17:28:00,
2013-04-19 13:33:00,61.3,58.3,29.72,ESE,122,12.0,19.0,90,0.00,,---,0.00,VWS V14.01,2013-04-19 17:33:00,
2013-04-19 13:38:00,61.5,58.2,29.72,SSE,150,12.0,20.0,89,0.00,,---,0.00,VWS V14.01,2013-04-19 17:38:00,
2013-04-19 13:43:00,61.6,58.3,29.72,SSE,158,9.0,16.0,89,0.00,,---,0.00,VWS V14.01,2013-04-19 17:43:00,
2013-04-19 13:48:00,61.5,57.9,29.72,South,173,15.0,18.0,88,0.00,,---,0.00,VWS V14.01,2013-04-19 17:48:00,
2013-04-19 13:53:00,61.4,58.1,29.73,South,174,7.0,15.0,89,0.00,,---,0.00,VWS V14.01,2013-04-19 17:53:00,
2013-04-19 13:58:00,61.5,58.2,29.73,SSE,158,6.0,11.0,89,0.00,,---,0.00,VWS V14.01,2013-04-19 17:58:00,
2013-04-19 14:03:00,61.6,57.7,29.73,South,170,10.0,11.0,87,0.00,,---,0.00,VWS V14.01,2013-04-19 18:03:00,
2013-04-19 14:08:00,62.1,57.5,29.72,SSE,150,14.0,14.0,85,0.00,,---,0.00,VWS V14.01,2013-04-19 18:08:00,
2013-04-19 14:13:00,62.6,57.7,29.73,SSE,155,6.0,19.0,84,0.00,,---,0.00,VWS V14.01,2013-04-19 18:13:00,
2013-04-19 14:18:00,62.8,57.2,29.73,SW,224,12.0,15.0,82,0.00,,---,0.00,VWS V14.01,2013-04-19 18:18:00,
2013-04-19 14:23:00,63.2,57.3,29.73,SSW,210,8.0,17.0,81,0.00,,---,0.00,VWS V14.01,2013-04-19 18:23:00,
2013-04-19 14:28:00,63.4,57.1,29.73,South,176,10.0,14.0,80,0.00,,---,0.00,VWS V14.01,2013-04-19 18:28:00,
2013-04-19 14:33:00,63.9,57.3,29.72,SSE,148,22.0,24.0,79,0.00,,---,0.00,VWS V14.01,2013-04-19 18:33:00,
2013-04-19 14:38:00,65.1,57.7,29.72,South,179,12.0,23.0,77,0.00,,---,0.00,VWS V14.01,2013-04-19 18:38:00,
2013-04-19 14:43:00,65.8,58.0,29.72,SW,219,13.0,15.0,76,0.00,,---,0.00,VWS V14.01,2013-04-19 18:43:00,
2013-04-19 14:48:00,65.7,57.6,29.72,SW,218,8.0,20.0,75,0.00,,---,0.00,VWS V14.01,2013-04-19 18:48:00,
2013-04-19 14:53:00,65.5,57.4,29.71,ESE,122,5.0,14.0,75,0.00,,---,0.00,VWS V14.01,2013-04-19 18:53:00,
2013-04-19 14:58:00,65.4,57.3,29.71,SSW,208,6.0,20.0,75,0.00,,---,0.00,VWS V14.01,2013-04-19 18:58:00,
2013-04-19 15:03:00,65.3,57.5,29.70,WSW,239,13.0,19.0,76,0.00,,---,0.00,VWS V14.01,2013-04-19 19:03:00,
2013-04-19 15:08:00,65.5,57.7,29.70,SSW,204,13.0,18.0,76,0.00,,---,0.00,VWS V14.01,2013-04-19 19:08:00,
2013-04-19 15:13:00,65.6,57.8,29.69,South,179,7.0,22.0,76,0.00,,---,0.00,VWS V14.01,2013-04-19 19:13:00,
2013-04-19 15:19:00,65.6,57.8,29.68,SSW,212,17.0,18.0,76,0.00,,---,0.00,VWS V14.01,2013-04-19 19:19:00,
2013-04-19 15:24:00,65.8,58.0,29.68,SSE,153,8.0,17.0,76,0.00,,---,0.00,VWS V14.01,2013-04-19 19:24:00,
2013-04-19 15:29:00,66.1,58.3,29.67,SE,146,9.0,14.0,76,0.00,,---,0.00,VWS V14.01,2013-04-19 19:29:00,
2013-04-19 15:34:00,66.0,58.2,29.66,South,170,10.0,21.0,76,0.00,,---,0.00,VWS V14.01,2013-04-19 19:34:00,
2013-04-19 15:39:00,65.9,58.5,29.66,South,184,8.0,16.0,77,0.00,,---,0.00,VWS V14.01,2013-04-19 19:39:00,
2013-04-19 15:44:00,66.0,58.6,29.66,South,176,8.0,18.0,77,0.00,,---,0.00,VWS V14.01,2013-04-19 19:44:00,
2013-04-19 15:49:00,66.0,58.6,29.65,SSW,205,6.0,17.0,77,0.00,,---,0.00,VWS V14.01,2013-04-19 19:49:00,
2013-04-19 15:54:00,66.0,58.6,29.64,SSW,199,5.0,16.0,77,0.00,,---,0.00,VWS V14.01,2013-04-19 19:54:00,
2013-04-19 15:59:00,65.7,58.3,29.65,SSE,155,6.0,18.0,77,0.00,,---,0.00,VWS V14.01,2013-04-19 19:59:00,
2013-04-19 16:04:00,65.7,58.7,29.64,SSW,193,5.0,21.0,78,0.00,,---,0.00,VWS V14.01,2013-04-19 20:04:00,
2013-04-19 16:09:00,65.7,58.7,29.63,South,169,10.0,15.0,78,0.00,,---,0.00,VWS V14.01,2013-04-19 20:09:00,
2013-04-19 16:14:00,65.4,58.7,29.62,SSE,153,11.0,19.0,79,0.00,,---,0.00,VWS V14.01,2013-04-19 20:14:00,
2013-04-19 16:19:00,65.1,58.8,29.59,ESE,118,10.0,19.0,80,0.00,,---,0.00,VWS V14.01,2013-04-19 20:19:00,
2013-04-19 16:24:00,64.7,58.7,29.58,SE,138,10.0,17.0,81,0.00,,---,0.00,VWS V14.01,2013-04-19 20:24:00,
2013-04-19 16:29:00,64.2,58.9,29.58,SE,143,5.0,18.0,83,0.00,,---,0.00,VWS V14.01,2013-04-19 20:29:00,
2013-04-19 16:34:00,63.7,59.1,29.59,SE,140,7.0,21.0,85,0.00,,---,0.00,VWS V14.01,2013-04-19 20:34:00,
2013-04-19 16:39:00,63.2,59.3,29.58,SE,146,17.0,23.0,87,0.00,,---,0.00,VWS V14.01,2013-04-19 20:39:00,
2013-04-19 16:44:00,63.0,59.1,29.57,ESE,104,18.0,28.0,87,0.00,,---,0.00,VWS V14.01,2013-04-19 20:44:00,
2013-04-19 16:49:00,62.8,59.2,29.56,South,169,17.0,22.0,88,0.00,,---,0.00,VWS V14.01,2013-04-19 20:49:00,
2013-04-19 16:54:00,62.8,58.9,29.56,SSE,162,24.0,29.0,87,0.00,,---,0.00,VWS V14.01,2013-04-19 20:54:00,
2013-04-19 16:59:00,62.9,59.0,29.56,SSE,151,14.0,26.0,87,0.00,,---,0.00,VWS V14.01,2013-04-19 20:59:00,
2013-04-19 17:04:00,63.1,59.2,29.56,SSE,160,21.0,33.0,87,0.00,,---,0.00,VWS V14.01,2013-04-19 21:04:00,
2013-04-19 17:09:00,63.0,59.1,29.56,South,170,27.0,34.0,87,0.00,,---,0.00,VWS V14.01,2013-04-19 21:09:00,
2013-04-19 17:14:00,63.2,59.3,29.57,SE,135,15.0,29.0,87,0.00,,---,0.00,VWS V14.01,2013-04-19 21:14:00,
2013-04-19 17:19:00,63.4,59.5,29.58,SSE,149,10.0,21.0,87,0.00,,---,0.00,VWS V14.01,2013-04-19 21:19:00,
2013-04-19 17:24:00,63.6,59.3,29.59,SSE,162,16.0,27.0,86,0.00,,---,0.00,VWS V14.01,2013-04-19 21:24:00,
2013-04-19 17:29:00,63.8,59.5,29.59,SSE,148,16.0,24.0,86,0.00,,---,0.00,VWS V14.01,2013-04-19 21:29:00,
2013-04-19 17:34:00,64.0,59.4,29.59,South,181,8.0,23.0,85,0.00,,---,0.00,VWS V14.01,2013-04-19 21:34:00,
2013-04-19 17:39:00,64.0,59.4,29.59,SSE,156,8.0,16.0,85,0.00,,---,0.00,VWS V14.01,2013-04-19 21:39:00,
2013-04-19 17:45:00,63.9,59.3,29.59,SE,128,11.0,19.0,85,0.00,,---,0.00,VWS V14.01,2013-04-19 21:45:00,
2013-04-19 17:50:00,63.9,59.3,29.59,South,187,9.0,19.0,85,0.00,,---,0.00,VWS V14.01,2013-04-19 21:50:00,
2013-04-19 17:55:00,63.8,59.2,29.59,SE,142,13.0,21.0,85,0.00,,---,0.00,VWS V14.01,2013-04-19 21:55:00,
2013-04-19 18:00:00,63.7,59.4,29.59,SE,142,12.0,20.0,86,0.00,,---,0.00,VWS V14.01,2013-04-19 22:00:00,
2013-04-19 18:06:00,63.7,59.4,29.58,SSE,156,11.0,18.0,86,0.00,,---,0.00,VWS V14.01,2013-04-19 22:06:00,
2013-04-19 18:11:00,63.7,59.4,29.59,SSE,156,10.0,23.0,86,0.00,,---,0.00,VWS V14.01,2013-04-19 22:11:00,
2013-04-19 18:16:00,63.7,59.4,29.59,SSE,163,13.0,18.0,86,0.00,,---,0.00,VWS V14.01,2013-04-19 22:16:00,
2013-04-19 18:21:00,63.7,59.8,29.59,SSE,149,16.0,22.0,87,0.00,,---,0.00,VWS V14.01,2013-04-19 22:21:00,
2013-04-19 18:26:00,63.6,59.7,29.59,SSW,208,16.0,27.0,87,0.00,,---,0.00,VWS V14.01,2013-04-19 22:26:00,
2013-04-19 18:31:00,63.4,59.8,29.59,SSE,155,21.0,22.0,88,0.00,,---,0.00,VWS V14.01,2013-04-19 22:31:00,
2013-04-19 18:36:00,63.0,59.7,29.59,SSE,152,16.0,25.0,89,0.00,,---,0.00,VWS V14.01,2013-04-19 22:36:00,
2013-04-19 18:41:00,62.6,59.6,29.59,SSE,165,16.0,22.0,90,0.01,,---,0.01,VWS V14.01,2013-04-19 22:41:00,
2013-04-19 18:46:00,62.3,59.6,29.59,SSE,159,11.0,20.0,91,0.01,,---,0.01,VWS V14.01,2013-04-19 22:46:00,
2013-04-19 18:51:00,62.1,59.8,29.58,SSE,158,17.0,17.0,92,0.02,,---,0.02,VWS V14.01,2013-04-19 22:51:00,
2013-04-19 18:56:00,61.8,59.8,29.58,South,187,11.0,18.0,93,0.03,,---,0.03,VWS V14.01,2013-04-19 22:56:00,
2013-04-19 19:01:00,61.7,59.7,29.58,SSE,149,13.0,19.0,93,0.04,,---,0.04,VWS V14.01,2013-04-19 23:01:00,
2013-04-19 19:06:00,61.7,59.7,29.58,SSE,148,20.0,24.0,93,0.04,,---,0.04,VWS V14.01,2013-04-19 23:06:00,
2013-04-19 19:11:00,61.6,59.9,29.57,SSE,162,16.0,21.0,94,0.04,,---,0.04,VWS V14.01,2013-04-19 23:11:00,
2013-04-19 19:16:00,61.4,59.7,29.57,SSE,167,20.0,22.0,94,0.04,,---,0.04,VWS V14.01,2013-04-19 23:16:00,
2013-04-19 19:21:00,61.3,59.6,29.57,SSE,158,20.0,21.0,94,0.06,,---,0.06,VWS V14.01,2013-04-19 23:21:00,
2013-04-19 19:26:00,61.2,59.5,29.56,South,183,9.0,20.0,94,0.08,,---,0.08,VWS V14.01,2013-04-19 23:26:00,
2013-04-19 19:31:00,61.0,59.3,29.56,SSW,198,14.0,18.0,94,0.08,,---,0.08,VWS V14.01,2013-04-19 23:31:00,
2013-04-19 19:36:00,60.8,59.4,29.56,SSE,158,13.0,18.0,95,0.09,,---,0.09,VWS V14.01,2013-04-19 23:36:00,
2013-04-19 19:41:00,60.7,59.3,29.56,SE,143,11.0,19.0,95,0.08,,---,0.09,VWS V14.01,2013-04-19 23:41:00,
2013-04-19 19:46:00,60.6,59.2,29.56,SSE,167,14.0,19.0,95,0.10,,---,0.11,VWS V14.01,2013-04-19 23:46:00,
2013-04-19 19:51:00,60.5,59.4,29.56,SE,134,11.0,20.0,96,0.10,,---,0.12,VWS V14.01,2013-04-19 23:51:00,
2013-04-19 19:56:00,60.4,59.3,29.56,SSE,164,12.0,20.0,96,0.09,,---,0.12,VWS V14.01,2013-04-19 23:56:00,
2013-04-19 20:01:00,60.4,59.3,29.56,SSW,203,14.0,21.0,96,0.10,,---,0.13,VWS V14.01,2013-04-20 00:01:00,
2013-04-19 20:06:00,60.3,59.2,29.56,SSE,158,14.0,20.0,96,0.10,,---,0.14,VWS V14.01,2013-04-20 00:06:00,
2013-04-19 20:11:00,60.3,59.2,29.55,SSE,149,19.0,22.0,96,0.11,,---,0.15,VWS V14.01,2013-04-20 00:11:00,
2013-04-19 20:16:00,60.1,59.0,29.54,SSE,159,11.0,23.0,96,0.12,,---,0.16,VWS V14.01,2013-04-20 00:16:00,
2013-04-19 20:21:00,60.0,58.9,29.54,SE,126,14.0,16.0,96,0.10,,---,0.16,VWS V14.01,2013-04-20 00:21:00,
2013-04-19 20:26:00,59.9,58.8,29.53,SE,134,12.0,19.0,96,0.08,,---,0.16,VWS V14.01,2013-04-20 00:26:00,
2013-04-19 20:31:00,59.9,59.0,29.54,SSE,150,14.0,19.0,97,0.09,,---,0.17,VWS V14.01,2013-04-20 00:31:00,
2013-04-19 20:36:00,59.8,59.0,29.54,South,181,17.0,20.0,97,0.09,,---,0.18,VWS V14.01,2013-04-20 00:36:00,
2013-04-19 20:41:00,59.8,59.0,29.53,SSE,159,11.0,23.0,97,0.10,,---,0.19,VWS V14.01,2013-04-20 00:41:00,
2013-04-19 20:46:00,59.7,58.8,29.54,SE,146,14.0,22.0,97,0.10,,---,0.21,VWS V14.01,2013-04-20 00:46:00,
2013-04-19 20:51:00,59.7,58.8,29.54,SSE,165,18.0,24.0,97,0.10,,---,0.22,VWS V14.01,2013-04-20 00:51:00,
2013-04-19 20:56:00,59.6,58.8,29.54,SE,139,13.0,20.0,97,0.10,,---,0.22,VWS V14.01,2013-04-20 00:56:00,
2013-04-19 21:01:00,59.6,58.8,29.55,SSE,159,15.0,20.0,97,0.09,,---,0.22,VWS V14.01,2013-04-20 01:01:00,
2013-04-19 21:06:00,59.6,58.8,29.56,South,176,11.0,21.0,97,0.08,,---,0.22,VWS V14.01,2013-04-20 01:06:00,
2013-04-19 21:11:00,59.6,58.8,29.58,WNW,292,7.0,19.0,97,0.07,,---,0.22,VWS V14.01,2013-04-20 01:11:00,
2013-04-19 21:19:00,50.3,46.9,29.61,NW,311,23.0,33.0,88,0.12,,---,0.28,VWS V14.01,2013-04-20 01:19:00,
2013-04-19 21:37:00,44.5,43.2,29.65,West,280,25.0,29.0,95,0.54,,---,0.72,VWS V14.01,2013-04-20 01:37:00,
2013-04-19 21:43:00,43.0,41.9,29.63,NW,316,17.0,29.0,96,0.55,,---,0.75,VWS V14.01,2013-04-20 01:43:00,
2013-04-19 21:48:00,42.5,41.7,29.63,NW,306,10.0,26.0,97,0.55,,---,0.76,VWS V14.01,2013-04-20 01:48:00,
2013-04-19 21:53:00,42.3,41.5,29.63,NW,305,13.0,24.0,97,0.55,,---,0.77,VWS V14.01,2013-04-20 01:53:00,
2013-04-19 21:58:00,42.1,41.3,29.64,WNW,301,12.0,23.0,97,0.57,,---,0.79,VWS V14.01,2013-04-20 01:58:00,
2013-04-19 22:03:00,42.0,41.2,29.64,NW,308,17.0,27.0,97,0.59,,---,0.81,VWS V14.01,2013-04-20 02:03:00,
2013-04-19 22:08:00,41.8,41.0,29.64,WNW,295,15.0,23.0,97,0.61,,---,0.83,VWS V14.01,2013-04-20 02:08:00,
2013-04-19 22:13:00,41.5,40.7,29.64,WNW,300,12.0,22.0,97,0.63,,---,0.85,VWS V14.01,2013-04-20 02:13:00,
2013-04-19 22:18:00,40.8,40.0,29.64,NW,314,14.0,26.0,97,0.61,,---,0.87,VWS V14.01,2013-04-20 02:18:00,
2013-04-19 22:23:00,40.1,39.3,29.66,WNW,285,18.0,28.0,97,0.58,,---,0.89,VWS V14.01,2013-04-20 02:23:00,
2013-04-19 22:28:00,39.7,38.9,29.67,NW,309,21.0,26.0,97,0.46,,---,0.91,VWS V14.01,2013-04-20 02:28:00,
2013-04-19 22:33:00,39.4,38.6,29.66,NW,305,21.0,26.0,97,0.28,,---,0.93,VWS V14.01,2013-04-20 02:33:00,
2013-04-19 22:39:00,39.1,38.3,29.66,NW,315,21.0,25.0,97,0.23,,---,0.96,VWS V14.01,2013-04-20 02:39:00,
2013-04-19 22:45:00,38.9,38.1,29.66,NW,319,15.0,23.0,97,0.22,,---,0.98,VWS V14.01,2013-04-20 02:45:00,
2013-04-19 22:50:00,38.6,37.8,29.66,WNW,300,26.0,28.0,97,0.23,,---,0.99,VWS V14.01,2013-04-20 02:50:00,
2013-04-19 22:55:00,38.4,37.6,29.67,WNW,300,19.0,27.0,97,0.21,,---,0.99,VWS V14.01,2013-04-20 02:55:00,
2013-04-19 23:00:00,38.1,37.3,29.67,NW,326,17.0,24.0,97,0.20,,---,1.00,VWS V14.01,2013-04-20 03:00:00,
2013-04-19 23:06:00,38.0,37.5,29.67,NW,326,26.0,26.0,98,0.18,,---,1.00,VWS V14.01,2013-04-20 03:06:00,
2013-04-19 23:11:00,37.9,37.4,29.67,NW,308,14.0,26.0,98,0.17,,---,1.00,VWS V14.01,2013-04-20 03:11:00,
2013-04-19 23:16:00,37.9,37.4,29.66,NW,307,17.0,26.0,98,0.15,,---,1.00,VWS V14.01,2013-04-20 03:16:00,
2013-04-19 23:21:00,37.8,37.3,29.66,WNW,295,23.0,27.0,98,0.13,,---,1.00,VWS V14.01,2013-04-20 03:21:00,
2013-04-19 23:26:00,37.9,37.4,29.67,NW,308,16.0,23.0,98,0.11,,---,1.01,VWS V14.01,2013-04-20 03:26:00,
2013-04-19 23:31:00,37.8,37.3,29.66,NW,314,16.0,23.0,98,0.09,,---,1.01,VWS V14.01,2013-04-20 03:31:00,
2013-04-19 23:37:00,37.7,37.2,29.65,WNW,298,19.0,22.0,98,0.06,,---,1.01,VWS V14.01,2013-04-20 03:37:00,
2013-04-19 23:42:00,37.7,37.2,29.66,WNW,300,13.0,23.0,98,0.04,,---,1.01,VWS V14.01,2013-04-20 03:42:00,
2013-04-19 23:47:00,37.7,37.2,29.66,WNW,299,12.0,25.0,98,0.03,,---,1.01,VWS V14.01,2013-04-20 03:47:00,
2013-04-19 23:53:00,37.7,37.2,29.66,NW,314,21.0,25.0,98,0.02,,---,1.01,VWS V14.01,2013-04-20 03:53:00,
2013-04-19 23:58:00,37.6,37.1,29.66,NW,305,24.0,24.0,98,0.01,,---,1.01,VWS V14.01,2013-04-20 03:58:00,